When you browse on this site, cookies collect data to enhance your experience and personalize the content and advertising you see.
Visit our Privacy Policy to learn more. By continuing to use the site, you agree to this use of cookies and data.
  • en Suisse
  • Liste des pays
  • À 7 jours
  • Température de l'eau
  • Carte satellitaire
  • Carte météo
  • Widgets météo
  • user-avatar
    Se connecter

    Météo par heure à Belén

    Ce jour, 24 Janvier, Jeudi

    Heure Température Précipitation Vent Pression Humidité
    00:00 +26°C° 0.1 mm 2 m/s 758 mmHg 95%
    01:00 +26°C° 0 mm 2 m/s 758 mmHg 95%
    02:00 +26°C° 0 mm 2 m/s 758 mmHg 95%
    03:00 +26°C° 0 mm 2 m/s 758 mmHg 95%
    04:00 +26°C° 0 mm 1 m/s 758 mmHg 95%
    05:00 +26°C° 0 mm 1 m/s 758 mmHg 95%
    06:00 +26°C° 0 mm 1 m/s 758 mmHg 95%
    07:00 +27°C° 0.1 mm 1 m/s 758 mmHg 91%
    08:00 +28°C° 0.1 mm 2 m/s 758 mmHg 87%
    09:00 +29°C° 0.1 mm 2 m/s 758 mmHg 83%
    10:00 +30°C° 0.2 mm 2 m/s 759 mmHg 75%
    11:00 +32°C° 0.2 mm 2 m/s 759 mmHg 67%
    12:00 +34°C° 0.2 mm 2 m/s 759 mmHg 59%
    13:00 +32°C° 0.5 mm 2 m/s 758 mmHg 67%
    14:00 +31°C° 0.5 mm 2 m/s 757 mmHg 75%
    15:00 +30°C° 0.5 mm 3 m/s 757 mmHg 83%
    16:00 +30°C° 0.4 mm 2 m/s 757 mmHg 86%
    17:00 +29°C° 0.4 mm 2 m/s 757 mmHg 89%
    18:00 +28°C° 0.4 mm 2 m/s 756 mmHg 92%
    19:00 +27°C° 0.2 mm 2 m/s 757 mmHg 94%
    20:00 +27°C° 0.2 mm 2 m/s 758 mmHg 95%
    21:00 +26°C° 0.2 mm 2 m/s 758 mmHg 97%
    22:00 +26°C° 0 mm 2 m/s 759 mmHg 97%
    23:00 +26°C° 0 mm 2 m/s 759 mmHg 97%

    Demain, 25 Janvier, Vendredi

    Heure Température Précipitation Vent Pression Humidité
    00:00 +25°C° 0 mm 1 m/s 759 mmHg 97%
    01:00 +25°C° 0 mm 1 m/s 759 mmHg 97%
    02:00 +25°C° 0 mm 1 m/s 758 mmHg 97%
    03:00 +25°C° 0 mm 1 m/s 758 mmHg 98%
    04:00 +25°C° 0 mm 1 m/s 758 mmHg 98%
    05:00 +25°C° 0 mm 1 m/s 758 mmHg 98%
    06:00 +23°C° 0 mm 0 m/s 758 mmHg 98%
    07:00 +26°C° 0 mm 1 m/s 758 mmHg 93%
    08:00 +27°C° 0 mm 1 m/s 759 mmHg 89%
    09:00 +29°C° 0 mm 1 m/s 759 mmHg 84%
    10:00 +30°C° 0 mm 1 m/s 759 mmHg 75%
    11:00 +32°C° 0 mm 1 m/s 759 mmHg 66%
    12:00 +33°C° 0 mm 1 m/s 759 mmHg 57%
    13:00 +32°C° 0.4 mm 2 m/s 758 mmHg 65%
    14:00 +32°C° 0.4 mm 2 m/s 757 mmHg 73%
    15:00 +31°C° 0.4 mm 2 m/s 756 mmHg 81%
    16:00 +30°C° 0.5 mm 2 m/s 756 mmHg 86%
    17:00 +29°C° 0.5 mm 2 m/s 756 mmHg 90%
    18:00 +28°C° 0.5 mm 2 m/s 756 mmHg 94%
    19:00 +27°C° 0.4 mm 2 m/s 757 mmHg 94%
    20:00 +26°C° 0.4 mm 2 m/s 757 mmHg 95%
    21:00 +26°C° 0.4 mm 2 m/s 758 mmHg 96%
    22:00 +26°C° 0.9 mm 2 m/s 758 mmHg 96%
    23:00 +25°C° 0.9 mm 2 m/s 759 mmHg 97%

    Après-demain, 26 Janvier, Samedi

    Heure Température Précipitation Vent Pression Humidité
    00:00 +25°C° 0.9 mm 2 m/s 759 mmHg 97%
    01:00 +25°C° 0.4 mm 1 m/s 758 mmHg 97%
    02:00 +25°C° 0.4 mm 1 m/s 758 mmHg 97%
    03:00 +25°C° 0.4 mm 1 m/s 757 mmHg 97%
    04:00 +25°C° 0.8 mm 1 m/s 757 mmHg 98%
    05:00 +24°C° 0.8 mm 1 m/s 757 mmHg 98%
    06:00 +24°C° 0.8 mm 1 m/s 758 mmHg 98%
    07:00 +25°C° 0.2 mm 1 m/s 758 mmHg 95%
    08:00 +27°C° 0.2 mm 1 m/s 759 mmHg 92%
    09:00 +28°C° 0.2 mm 1 m/s 759 mmHg 88%
    10:00 +30°C° 0.1 mm 1 m/s 759 mmHg 77%
    11:00 +32°C° 0.1 mm 2 m/s 759 mmHg 66%
    12:00 +35°C° 0.1 mm 2 m/s 759 mmHg 55%
    13:00 +35°C° 0.2 mm 2 m/s 758 mmHg 54%
    14:00 +35°C° 0.2 mm 2 m/s 757 mmHg 54%
    15:00 +35°C° 0.2 mm 2 m/s 756 mmHg 53%
    16:00 +32°C° 0.5 mm 2 m/s 756 mmHg 67%
    17:00 +30°C° 0.5 mm 2 m/s 756 mmHg 81%
    18:00 +27°C° 0.5 mm 3 m/s 756 mmHg 95%
    19:00 +27°C° 0.5 mm 2 m/s 757 mmHg 95%
    20:00 +26°C° 0.5 mm 2 m/s 757 mmHg 96%
    21:00 +26°C° 0.5 mm 2 m/s 758 mmHg 97%
    22:00 +26°C° 0.3 mm 2 m/s 758 mmHg 97%
    23:00 +26°C° 0.3 mm 2 m/s 758 mmHg 97%

    27 Janvier, Dimanche

    Heure Température Précipitation Vent Pression Humidité
    00:00 +26°C° 0.3 mm 2 m/s 758 mmHg 97%
    01:00 +26°C° 0.1 mm 2 m/s 758 mmHg 97%
    02:00 +26°C° 0.1 mm 2 m/s 757 mmHg 97%
    03:00 +26°C° 0.1 mm 1 m/s 756 mmHg 97%
    04:00 +25°C° 0 mm 1 m/s 757 mmHg 97%
    05:00 +25°C° 0 mm 1 m/s 757 mmHg 97%
    06:00 +25°C° 0 mm 1 m/s 757 mmHg 97%
    07:00 +26°C° 0 mm 1 m/s 758 mmHg 96%
    08:00 +26°C° 0 mm 1 m/s 759 mmHg 94%
    09:00 +27°C° 0 mm 1 m/s 759 mmHg 92%
    10:00 +29°C° 0.1 mm 1 m/s 759 mmHg 81%
    11:00 +31°C° 0.1 mm 1 m/s 759 mmHg 71%
    12:00 +34°C° 0.1 mm 2 m/s 759 mmHg 60%
    13:00 +32°C° 1 mm 2 m/s 758 mmHg 67%
    14:00 +31°C° 1 mm 2 m/s 757 mmHg 75%
    15:00 +30°C° 1 mm 2 m/s 756 mmHg 83%
    16:00 +29°C° 1.3 mm 2 m/s 756 mmHg 86%
    17:00 +28°C° 1.3 mm 2 m/s 756 mmHg 89%
    18:00 +28°C° 1.3 mm 2 m/s 757 mmHg 93%
    19:00 +27°C° 1.5 mm 2 m/s 757 mmHg 94%
    20:00 +26°C° 1.5 mm 3 m/s 758 mmHg 96%
    21:00 +26°C° 1.5 mm 3 m/s 758 mmHg 98%
    22:00 +26°C° 0 mm 3 m/s 758 mmHg 98%
    23:00 +25°C° 0 mm 2 m/s 758 mmHg 98%

    28 Janvier, Lundi

    Heure Température Précipitation Vent Pression Humidité
    00:00 +25°C° 0 mm 2 m/s 758 mmHg 98%
    01:00 +25°C° 0 mm 2 m/s 758 mmHg 98%
    02:00 +25°C° 0 mm 2 m/s 757 mmHg 98%
    03:00 +25°C° 0 mm 1 m/s 756 mmHg 98%
    04:00 +25°C° 0 mm 1 m/s 756 mmHg 98%
    05:00 +25°C° 0 mm 2 m/s 756 mmHg 98%
    06:00 +25°C° 0 mm 2 m/s 756 mmHg 98%
    07:00 +26°C° 0 mm 2 m/s 757 mmHg 93%
    08:00 +27°C° 0 mm 2 m/s 758 mmHg 89%
    09:00 +29°C° 0 mm 2 m/s 758 mmHg 84%
    10:00 +30°C° 0.2 mm 2 m/s 758 mmHg 79%
    11:00 +31°C° 0.2 mm 2 m/s 757 mmHg 75%
    12:00 +33°C° 0.2 mm 3 m/s 757 mmHg 70%
    13:00 +32°C° 0.8 mm 2 m/s 757 mmHg 73%
    14:00 +31°C° 0.8 mm 2 m/s 756 mmHg 77%
    15:00 +31°C° 0.8 mm 2 m/s 755 mmHg 80%
    16:00 +30°C° 0.7 mm 2 m/s 756 mmHg 85%
    17:00 +29°C° 0.7 mm 2 m/s 756 mmHg 90%
    18:00 +28°C° 0.7 mm 2 m/s 756 mmHg 95%
    19:00 +27°C° 0.1 mm 2 m/s 756 mmHg 96%
    20:00 +27°C° 0.1 mm 2 m/s 757 mmHg 96%
    21:00 +26°C° 0.1 mm 2 m/s 757 mmHg 97%
    22:00 +26°C° 0 mm 2 m/s 757 mmHg 97%
    23:00 +26°C° 0 mm 2 m/s 758 mmHg 97%

    29 Janvier, Mardi

    Heure Température Précipitation Vent Pression Humidité
    00:00 +26°C° 0 mm 2 m/s 758 mmHg 97%
    01:00 +25°C° 0 mm 2 m/s 757 mmHg 98%
    02:00 +25°C° 0 mm 2 m/s 757 mmHg 98%
    03:00 +25°C° 0 mm 2 m/s 756 mmHg 98%
    04:00 +25°C° 0 mm 2 m/s 756 mmHg 98%
    05:00 +25°C° 0 mm 2 m/s 756 mmHg 98%
    06:00 +25°C° 0 mm 2 m/s 757 mmHg 98%
    07:00 +26°C° 0 mm 2 m/s 757 mmHg 93%
    08:00 +28°C° 0 mm 2 m/s 757 mmHg 88%
    09:00 +29°C° 0 mm 3 m/s 758 mmHg 83%
    10:00 +31°C° 0 mm 3 m/s 758 mmHg 74%
    11:00 +33°C° 0 mm 3 m/s 757 mmHg 64%
    12:00 +35°C° 0 mm 3 m/s 757 mmHg 54%
    13:00 +36°C° 0.1 mm 3 m/s 756 mmHg 53%
    14:00 +36°C° 0.1 mm 3 m/s 755 mmHg 52%
    15:00 +36°C° 0.1 mm 3 m/s 754 mmHg 51%
    16:00 +34°C° 0.6 mm 3 m/s 755 mmHg 63%
    17:00 +31°C° 0.6 mm 3 m/s 755 mmHg 75%
    18:00 +29°C° 0.6 mm 3 m/s 755 mmHg 87%
    19:00 +28°C° 0.1 mm 2 m/s 755 mmHg 90%
    20:00 +27°C° 0.1 mm 2 m/s 756 mmHg 92%
    21:00 +26°C° 0.1 mm 2 m/s 756 mmHg 95%
    22:00 +26°C° 0 mm 2 m/s 757 mmHg 95%
    23:00 +26°C° 0 mm 2 m/s 757 mmHg 95%
    Voir plus